Regional Weather Roundup
Issued by NWS

Home | Current Version | Previous Version | Graphics & Text | Print | Product List | Glossary On
Versions: 1 2 3 4 5 6 7 8 9 10 11 12 13 14 15 16 17 18 19 20 21 22 23 24 25 26 27 28 29 30 31 32 33 34 35 36 37 38 39 40 41 42 43 44 45
000
ASUS45 KCYS 280910
RWRWY

WYOMING REGIONAL WEATHER ROUNDUP
NATIONAL WEATHER SERVICE CHEYENNE WY
300 AM MDT FRI AUG 28 2015

NOTE:  "FAIR" INDICATES FEW OR NO CLOUDS BELOW 12,000 FEET
WITH NO SIGNIFICANT WEATHER AND/OR OBSTRUCTIONS TO VISIBILITY.

WYZ001-281000-
YELLOWSTONE NATIONAL PARK

CITY           SKY/WX    TMP DP  RH WIND       PRES   REMARKS
LK YELLOWSTONE   N/A     38  37  97 CALM      30.42S
W YELLOWSTONE  NOT AVBL

$$
WYZ002>013-054>058-071-098>099-281000-
NORTHERN WYOMING

CITY           SKY/WX    TMP DP  RH WIND       PRES   REMARKS
JACKSON        FAIR      45  45 100 N7        30.34S
CODY           FAIR      54  45  71 S5        30.18S
GREYBULL       FAIR      60  52  74 CALM      30.14S HAZE
WORLAND        FAIR      56  53  90 W6        30.14F FOG
SHERIDAN       FAIR      59  45  59 N5        30.06S
BUFFALO        FAIR      67  38  34 W8        30.14R
GILLETTE       FAIR      66  44  45 SW12      30.07F
HULETT         FAIR      59  50  72 S9        30.08R
NEWCASTLE      FAIR      55  48  76 N8        30.08S

$$
WYZ014>020-022>026-101>103-281000-
CENTRAL WYOMING

CITY           SKY/WX    TMP DP  RH WIND       PRES   REMARKS
BIG PINEY      FAIR      43  37  79 NE7       30.38R
PINEDALE       FAIR      43  41  93 W3        30.39F
DUBOIS         FAIR      45  39  81 NW10      30.35S
LANDER         FAIR      53  46  77 S5        30.23S
RIVERTON       FAIR      55  50  83 CALM      30.24F
CASPER         FAIR      59  45  59 SW12      30.21R
DOUGLAS        FAIR      63  45  51 NW8       30.16S

$$
WYZ021-027>030-104>119-281000-
SOUTHERN WYOMING

CITY           SKY/WX    TMP DP  RH WIND       PRES   REMARKS
EVANSTON       FAIR      53  38  56 SE8       30.38S
KEMMERER       FAIR      45  36  70 N6        30.40R
FORT BRIDGER   SUNNY     55  37  50 W7        30.39S
ROCK SPRINGS   FAIR      54  43  66 S8        30.35F
DIXON          FAIR      49  44  83 E6        30.36F
RAWLINS        FAIR      51  44  77 SW5       30.31F
SARATOGA       FAIR      50  46  87 SW8       30.34F
LARAMIE        FAIR      48  45  89 NW3       30.33S
CHEYENNE       CLOUDY    57  54  89 W10       30.23F
TORRINGTON     FAIR      62  53  72 NW8       30.08S
PINE BLUFFS    FAIR      61  52  72 W8        30.15F

$$



USA.gov is the U.S. government's official web portal to all federal, state and local government web resources and services.